STARLINK-30168 (57513 NORAD) Tracking and Keplerian Element Data

This shows tracking and keplerian element data for the satellite.

Feedback or suggestion? Click here.




ElementValue
Catalog57513
NameSTARLINK-30168
Epoch Orbit2517
Epoch Day13.11508587
Epoch Year2024
RAAN331.7869
Inclination43.0035
Eccentricity0.0001165
Argument of Perigee248.7903
Mean Anonmoly111.2814
Mean Motion15.02544046
Decay Rate0.00028613
L11 57513U 23113U 24013.11508587 .00028613 00000+0 21241-2 0 9997
L22 57513 43.0035 331.7869 0001165 248.7903 111.2814 15.02544046 25175



Live tracking and technical data element details for STARLINK-30168 (NORAD 57513). STARLINK-30168 can be tracked NOW for your location showing map with azimuth and elevation plus other details from your city location.







IsCatalogInMostPopularTable: catalog: 57513, numindb: 31
Update: records affected: 1



GetName: 57513 STARLINK-30168

Hit Count: updated at: Thu, 22 Feb 2024 02:14:22 GMT